Location: Gorze? G�rny
(49.8500°N, 19.5000°E)
Time: 05:25:56
(UTC+00:00)

Cosmos 1777 Rocket - Pass Details

Date: 13 May 2021
Orbit: 758 x 776 km, 74.0° (Epoch: 20 June)

Event Time Altitude Azimuth Distance (km) Brightness Sun altitude
Rises 19:30:59 0° 199° (SSW) 3,204 7.0 -10.0°
Reaches altitude 10° 19:33:21 10° 198° (SSW) 2,282 6.2 -10.3°
Maximum altitude 19:38:31 83° 112° (ESE) 771 3.9 -10.9°
Drops below altitude 10° 19:43:45 10° 25° (NNE) 2,301 6.8 -11.4°
Sets 19:46:08 0° 25° (NNE) 3,232 7.6 -11.7°
